Location: downtown San Diego
(32.7310°N, 117.1990°W)
Time: 20:06:52
(UTC-08:00)

Cosmos 1709 Rocket - Pass Details

Date: 19 May 2017
Orbit: 947 x 1003 km, 82.9° (Epoch: 24 November)

Event Time Altitude Azimuth Distance (km) Brightness Sun altitude
Rises 21:20:26 0° 350° (N) 3,705 7.8 -18.1°
Reaches altitude 10° 21:22:59 10° 348° (NNW) 2,745 7.1 -18.5°
Maximum altitude 21:29:12 67° 267° (W) 1,052 4.3 -19.5°
Enters shadow 21:34:24 15° 188° (S) 2,362 5.7 -20.3°
